General Mitchell International Airport
KMKE : rendu visible

Aérodrome :











RETROUVEZ-NOUS SUR...

 
LOGIN :

S'inscrire | Disclaimer

   EN    FR    IT 

 









Légende :    VFR   VFR Marginal   IFR   IFR Intensif   IFR Très Intensif
Visi : 
Plafond : 
>= 8 km
>= 3000ft
5 à 8 km
1000 à 3000 ft
1500m à 5 km
500 à 1000 ft
800 à 1500m
200 à 500 ft
< 800m
< 200 ft
Symboles :   Orages  Brouillard  Fortes neiges  Fortes précipitations  Vent > 20 kt






- Altitude de l'aérodrome : 723 ft
- Code IATA : MKE


KMKE - General Mitchell International

DERNIER METAR :
  • 250452Z 20006KT 10SM FEW090 FEW110 18/15 A2992 RMK AO2 SLP129 T01830150

METARs EXPIRÉS :
  • 250352Z 19005KT 10SM SCT110 SCT250 19/16 A2992 RMK AO2 SLP129 T01890156
  • 250252Z 20005KT 10SM FEW050 SCT150 SCT250 19/16 A2992 RMK AO2 SLP127 T01940156 53004

TAF KMKE
Valide du 25 à 06h jusqu'au 26 à 12h UTC


250520Z 2506/2612 19005KT P6SM SCT110 SCT250
FM251300 21006KT P6SM FEW250
FM251800 20012G20KT P6SM FEW250
FM260000 22010KT P6SM SCT180
FIR KZAU / Amérique du Nord



MET'MAP, la Météo Aéronautique d'un coup d'oeil ! - Copyright ORBIFLY Décembre 2007 - Disclaimer

ORBIFLY MET'MAP TEAM :

Programmation & Développement : Alexandra Zaïnal
Sur une idée originale de : Baudouin d'Aumeries
Assistance à la programmation : Marc-Olivier Méhu
Soutien technique & logistique : Manuel Goepfert

Contact : metmap@orbifly.com




SOURCES & CREDITS :

   NOAA       Earth
Advisory